CW5506 Weather Reports


time (UTC)temp
C
wind
direction
speed
KPH
gust
KPH
rain 1hr
cm
rain 24hr
cm
rain mn
cm
humidity
%
barometer
mb
20260509091524 11 190 0.0 0.0 0.00 0.00 0.00 92 1000.4
20260509090015 11 182 0.0 0.0 0.00 0.00 0.00 92 1000.5
20260509084513 11 165 0.0 0.0 0.00 0.00 0.00 92 1000.6
20260509083013 11 186 0.0 0.0 0.00 0.00 0.00 91 1001.1
20260509081518 11 185 0.0 0.0 0.00 0.00 0.00 89 1001.2
20260509080011 11 184 0.0 0.0 0.00 0.00 0.00 87 1001.2
20260509074508 11 201 0.0 0.0 0.00 0.00 0.00 85 1001.4
20260509073005 10 169 0.0 0.0 0.00 0.00 0.00 79 1001.7
20260509071502 10 169 0.0 0.0 0.00 0.00 0.00 72 1001.9
20260509070059 10 161 0.0 0.0 0.00 0.00 0.00 64 1001.9
20260509064619 10 161 0.0 0.0 0.00 0.00 0.00 59 1001.9
20260509063056 11 160 0.0 0.0 0.00 0.00 0.00 51 1002.2
20260509061554 11 172 0.0 0.0 0.00 0.00 0.00 46 1002.3
20260509060051 11 159 0.0 0.0 0.00 0.00 0.00 41 1002.3
20260509054600 11 157 0.0 0.0 0.00 0.00 0.00 39 1002.6
20260509053051 11 148 0.0 0.0 0.00 0.00 0.00 39 1002.8
20260509051551 11 147 0.0 0.0 0.00 0.00 0.00 39 1002.7
20260509050046 10 144 0.0 0.0 0.00 0.00 0.00 39 1002.8
20260509044545 10 158 0.0 0.0 0.00 0.00 0.00 39 1002.9
20260509043044 10 158 0.0 0.0 0.00 0.00 0.00 39 1002.9
20260509041610 10 171 0.0 0.0 0.00 0.00 0.00 38 1003.1
20260509040044 10 171 0.0 0.0 0.00 0.00 0.00 37 1003.5
20260509034540 11 171 0.0 0.0 0.00 0.00 0.00 36 1003.5
20260509033040 11 180 0.0 0.0 0.00 0.00 0.00 35 1003.6
20260509031540 11 180 0.0 0.0 0.00 0.00 0.00 34 1004.0
20260509030039 11 180 0.0 0.0 0.00 0.00 0.00 33 1004.1
20260509024539 11 180 0.0 0.0 0.00 0.00 0.00 33 1004.3
20260509023046 11 180 0.0 0.0 0.00 0.00 0.00 33 1004.3
20260509021538 12 180 0.0 0.0 0.00 0.00 0.00 34 1004.1
20260509020048 12 180 0.0 0.0 0.00 0.00 0.00 32 1004.1
20260509014539 12 180 0.0 0.0 0.00 0.00 0.00 35 1004.1
20260509013043 12 216 0.0 0.0 0.00 0.00 0.00 35 1004.0
20260509011537 13 215 0.0 0.0 0.00 0.00 0.00 31 1004.1
20260509010039 13 215 0.0 0.0 0.00 0.00 0.00 29 1004.1
20260509004535 14 215 0.0 0.0 0.00 0.00 0.00 28 1004.1
20260509003032 15 215 0.0 0.0 0.00 0.00 0.00 28 1004.3
20260509001532 15 215 0.0 0.0 0.00 0.00 0.00 27 1004.7
20260509000030 16 215 0.0 0.0 0.00 0.00 0.00 27 1004.7
20260508234531 16 219 0.0 0.0 0.00 0.00 0.00 27 1004.8
20260508233029 16 219 4.8 0.0 0.00 0.00 0.00 27 1005.1
20260508231528 16 210 6.4 0.0 0.00 0.00 0.00 28 1005.2
20260508230038 16 214 0.0 0.0 0.00 0.00 0.00 27 1005.1
20260508224527 17 209 1.6 0.0 0.00 0.00 0.00 26 1005.3
20260508223029 17 211 1.6 0.0 0.00 0.00 0.00 25 1005.4
20260508221525 17 221 6.4 0.0 0.00 0.00 0.00 25 1005.4
20260508220027 17 290 3.2 0.0 0.00 0.00 0.00 25 1005.4
20260508214528 17 241 9.7 0.0 0.00 0.00 0.00 25 1005.4
20260508213025 17 225 8.0 0.0 0.00 0.00 0.00 25 1005.4
20260508211533 17 242 8.0 0.0 0.00 0.00 0.00 25 1005.4
20260508210020 17 261 9.7 0.0 0.00 0.00 0.00 25 1005.6
20260508204519 17 205 8.0 0.0 0.00 0.00 0.00 27 1005.8
20260508203017 17 213 1.6 0.0 0.00 0.00 0.00 27 1005.9
20260508201516 17 222 3.2 0.0 0.00 0.00 0.00 27 1006.2
20260508200017 17 240 8.0 0.0 0.00 0.00 0.00 26 1006.3
20260508194526 17 204 4.8 0.0 0.00 0.00 0.00 28 1006.5
20260508193012 16 208 6.4 0.0 0.00 0.00 0.00 27 1006.5
20260508191512 16 179 8.0 0.0 0.00 0.00 0.00 28 1006.5
20260508190013 16 206 8.0 0.0 0.00 0.00 0.00 26 1006.7
20260508184510 16 204 1.6 0.0 0.00 0.00 0.00 28 1007.0
20260508183019 16 227 8.0 0.0 0.00 0.00 0.00 27 1006.9
20260508181510 16 209 1.6 0.0 0.00 0.00 0.00 28 1007.0
20260508180012 17 209 1.6 0.0 0.00 0.00 0.00 28 1007.3
20260508174506 16 306 8.0 0.0 0.00 0.00 0.00 31 1007.5
20260508173005 16 200 3.2 0.0 0.00 0.00 0.00 30 1007.8
20260508171504 16 292 0.0 0.0 0.00 0.00 0.00 33 1008.0
20260508170002 15 217 8.0 0.0 0.00 0.00 0.00 31 1008.5
20260508164501 15 188 3.2 0.0 0.00 0.00 0.00 34 1008.5
20260508163106 15 233 0.0 0.0 0.00 0.00 0.00 33 1008.5
20260508161600 16 211 4.8 0.0 0.00 0.00 0.00 35 1008.5
20260508160055 14 219 6.4 0.0 0.00 0.00 0.00 36 1008.5
20260508154609 13 158 6.4 0.0 0.00 0.00 0.00 39 1008.6
20260508153053 13 240 3.2 0.0 0.00 0.00 0.00 41 1008.7
20260508151552 14 220 1.6 0.0 0.00 0.00 0.00 44 1008.7
20260508150048 13 183 6.4 0.0 0.00 0.00 0.00 46 1009.1
20260508144600 13 171 0.0 0.0 0.00 0.00 0.00 52 1009.1
20260508143044 12 172 1.6 0.0 0.00 0.00 0.00 51 1009.1
20260508141542 12 165 0.0 0.0 0.00 0.00 0.00 54 1009.2
20260508140040 11 179 0.0 0.0 0.00 0.00 0.00 58 1009.2
20260508134551 11 181 0.0 0.0 0.00 0.00 0.00 63 1009.3
20260508133046 10 263 0.0 0.0 0.00 0.00 0.00 67 1009.5
20260508131530 9 268 0.0 0.0 0.00 0.00 0.00 71 1009.6
20260508130029 8 269 0.0 0.0 0.00 0.00 0.00 74 1009.7
20260508124528 7 267 0.0 0.0 0.00 0.00 0.00 77 1009.7
20260508123041 7 278 0.0 0.0 0.00 0.00 0.00 81 1009.6
20260508121523 6 278 0.0 0.0 0.00 0.00 0.00 88 1009.4
20260508120017 5 278 0.0 0.0 0.00 0.00 0.00 94 1009.3
20260508114516 3 278 0.0 0.0 0.00 0.00 0.00 99 1009.2
20260508113019 3 278 0.0 0.0 0.00 0.00 0.00 100 1009.3
20260508111514 1 279 0.0 0.0 0.00 0.00 0.00 100 1009.4
20260508110013 1 279 0.0 0.0 0.00 0.00 0.00 100 1009.2
20260508104513 0 279 0.0 0.0 0.00 0.00 0.00 100 1009.0
20260508103016 0 279 0.0 0.0 0.00 0.00 0.00 100 1009.2
20260508101512 1 279 0.0 0.0 0.00 0.00 0.00 100 1009.3
20260508100010 1 279 0.0 0.0 0.00 0.00 0.00 99 1009.3
20260508094509 1 279 0.0 0.0 0.00 0.00 0.00 98 1009.4
20260508093010 1 279 0.0 0.0 0.00 0.00 0.00 97 1009.4